Vorticity
nan nan nan nan nan nan nan nan nan nan nan nan nan nan nan nan nan nan nan nan nan nan nan nan nan nan nan nan nan nan nan nan nan nan nan nan nan nan nan nan nan nan nan nan nan nan nan nan nan nan nan nan nan nan
nan 18 16 15 14 17 17 13 10 14 15 13 12 11 9 9 9 -1 2 11 12 12 12 7 4 7 12 15 17 8 8 15 11 8 12 10 10 12 12 13 10 8 8 9 10 9 14 3 6 13 8 12 11 nan
nan 13 15 17 19 17 17 19 18 17 18 13 13 13 10 8 6 4 6 5 7 9 8 7 2 5 9 14 17 12 12 10 13 13 12 12 12 11 11 10 11 12 12 8 8 4 10 14 6 6 7 10 13 nan
nan 16 10 11 18 17 15 16 20 16 14 12 12 14 10 8 13 13 7 9 10 11 8 10 13 9 8 11 12 16 16 13 8 11 14 13 8 10 11 12 12 14 14 8 8 14 14 12 7 10 12 9 11 nan
nan 14 16 11 7 14 21 19 15 14 15 14 11 11 11 14 7 5 7 10 11 13 12 9 5 12 19 15 13 15 10 10 9 9 11 11 10 10 9 11 13 9 6 8 12 14 15 13 10 16 14 11 12 nan
nan 18 17 18 9 10 21 23 18 12 12 16 15 13 16 18 -1 -3 5 9 12 14 12 11 8 8 10 10 9 11 11 10 13 11 7 10 12 12 12 12 10 7 11 15 16 7 9 9 11 15 15 14 13 nan
nan 18 15 21 16 7 17 19 13 11 12 14 14 12 15 14 14 16 12 5 11 13 11 13 9 8 8 11 8 3 9 13 10 10 12 11 10 10 10 9 6 12 14 14 12 9 10 8 11 14 15 14 12 nan
nan 20 16 13 18 12 10 14 12 13 10 6 8 5 7 9 3 -0 4 12 16 13 11 10 13 12 12 9 7 9 10 8 11 13 11 11 10 10 11 9 13 15 8 10 9 9 13 12 12 14 12 12 11 nan
nan 18 20 13 11 14 12 11 11 9 3 -1 1 -1 -9 -1 10 7 4 10 17 12 11 14 12 8 10 10 10 12 11 10 13 12 13 11 10 8 13 11 13 14 12 14 14 11 12 13 13 11 11 7 10 nan
nan 13 15 18 16 9 8 7 5 4 -0 -2 3 8 14 14 12 5 11 13 10 12 12 17 16 14 11 9 10 11 11 12 11 11 9 12 11 15 16 14 12 8 7 12 15 13 10 10 12 11 11 14 12 nan
nan 9 10 12 13 12 7 4 3 -0 1 10 14 13 9 11 15 15 14 13 9 11 13 15 15 12 8 10 11 10 14 10 11 13 12 10 13 17 10 11 10 11 15 14 12 11 10 13 12 11 11 17 13 nan
nan 10 10 11 11 9 10 13 12 9 13 16 12 11 7 7 14 12 12 13 13 13 14 13 8 6 11 12 11 11 12 12 15 9 11 14 16 12 7 9 10 14 18 12 9 10 16 23 17 14 14 12 12 nan
nan 11 12 13 11 9 8 12 17 18 12 4 6 13 13 11 15 14 13 12 13 14 15 10 8 9 9 11 12 14 12 13 10 10 9 12 12 8 12 12 12 15 14 11 10 12 14 16 20 18 11 10 11 nan
nan 8 9 10 10 9 8 7 5 9 12 12 9 11 13 12 10 15 18 16 17 17 12 8 8 12 12 11 11 10 11 13 10 12 10 8 10 11 12 12 12 10 11 12 11 10 10 11 10 11 11 11 11 nan
nan 6 -1 4 13 12 9 8 15 15 11 11 12 14 14 14 10 15 14 14 13 11 9 7 9 11 13 13 12 11 12 12 10 9 10 8 11 12 12 14 12 10 10 10 11 10 10 9 9 10 12 13 11 nan
nan -1 -3 4 9 13 18 13 12 16 12 10 13 16 14 10 12 15 13 11 10 10 5 7 12 12 12 11 12 13 10 8 12 11 9 11 12 13 15 14 12 12 11 10 12 12 10 9 12 11 10 11 13 nan
nan 6 6 15 16 9 14 21 11 12 14 14 16 13 9 9 11 9 7 8 12 13 14 13 9 10 13 13 8 9 15 16 13 11 11 11 12 13 11 12 13 14 12 12 13 12 12 10 11 11 10 11 12 nan
nan 5 10 20 22 14 10 13 12 11 15 14 11 11 12 13 10 9 10 11 15 12 11 13 14 11 13 12 15 16 12 10 10 11 12 13 13 12 12 11 11 12 11 12 12 12 12 12 8 10 14 11 11 nan
nan 6 8 21 23 14 10 10 12 14 10 12 12 10 12 13 13 10 9 11 14 15 12 10 14 12 13 16 12 12 13 12 11 9 9 10 11 12 12 12 12 9 11 13 10 10 11 11 10 12 13 11 10 nan
nan 2 11 17 20 14 11 11 15 15 12 14 14 11 8 10 11 12 10 10 10 11 12 12 10 14 15 14 13 13 12 11 10 10 11 10 12 10 9 9 10 12 10 10 10 12 14 12 12 12 14 12 11 nan
nan 3 15 16 13 15 14 8 15 16 13 11 11 10 13 13 10 9 8 8 10 13 11 11 14 11 8 10 12 11 11 10 10 12 10 9 8 11 13 13 11 10 10 10 11 13 11 12 13 12 13 13 13 nan
nan 13 11 12 15 12 10 11 16 12 14 13 10 10 10 11 11 10 10 11 12 13 12 12 12 13 13 10 9 8 8 16 15 7 8 10 9 10 10 11 11 10 11 12 12 11 13 12 12 15 14 14 13 nan
nan 15 14 12 11 13 12 13 12 14 15 13 10 10 13 11 11 11 13 12 12 12 13 12 9 11 11 10 12 12 13 14 12 12 14 12 12 13 12 11 12 13 13 11 11 15 13 12 13 15 16 12 10 nan
nan 15 12 13 12 12 12 17 13 13 13 12 11 12 12 11 12 11 12 13 14 13 12 8 9 14 14 12 11 11 12 13 13 12 12 13 14 12 12 13 14 16 15 13 12 13 14 13 13 14 14 12 10 nan
nan 10 14 14 14 13 10 12 13 13 14 11 11 14 12 13 13 13 13 14 11 10 11 12 11 13 16 18 14 9 10 12 9 9 12 13 12 15 16 16 16 16 18 14 12 12 11 13 13 12 12 12 11 nan
nan 13 16 13 13 13 13 13 15 11 9 11 13 13 13 12 14 13 13 13 13 11 10 11 13 13 11 12 12 11 11 12 13 11 9 14 14 12 12 16 19 13 18 23 17 13 12 11 13 12 11 13 11 nan
nan 13 12 14 15 11 12 15 12 11 13 14 13 11 14 13 11 12 15 15 12 11 10 10 10 11 11 10 8 10 11 11 12 13 14 15 15 15 15 12 13 14 11 19 20 15 15 14 13 13 11 12 15 nan
nan 15 14 13 12 12 11 13 13 12 12 14 12 12 13 10 11 15 13 12 13 12 10 10 11 8 8 8 9 10 10 12 13 11 14 16 11 10 11 12 11 10 12 13 14 17 16 15 14 14 14 12 13 nan
nan 11 10 12 12 14 13 12 13 12 14 15 11 14 10 9 14 15 13 11 10 12 12 9 8 8 8 9 10 11 12 11 11 13 13 11 11 7 7 12 12 12 12 11 13 13 13 17 17 17 15 14 14 nan
nan 8 10 12 12 12 12 12 11 11 12 14 17 14 13 13 10 9 11 11 10 12 12 9 9 12 10 11 13 13 11 12 14 13 12 11 11 10 11 13 13 12 12 12 12 12 14 15 15 15 15 14 14 nan
nan 10 13 13 10 11 13 13 12 10 9 9 13 14 9 9 12 15 14 11 13 13 13 13 13 14 14 13 14 13 14 13 13 13 13 13 12 11 11 13 13 11 12 12 13 12 13 13 12 13 15 15 14 nan
nan 11 12 13 12 10 11 11 12 12 13 13 12 12 12 10 11 12 13 16 15 13 12 13 14 12 11 13 16 15 13 13 15 15 13 13 15 13 11 13 14 11 11 12 13 12 11 12 13 12 12 12 14 nan
nan nan nan nan nan nan nan nan nan nan nan nan nan nan nan nan nan nan nan nan nan nan nan nan nan nan nan nan nan nan nan nan nan nan nan nan nan nan nan nan nan nan nan nan nan nan nan nan nan nan nan nan nan nan
CAPE
15 17 21 23 31 12 0 0 0 0 0 0 0 0 0 0 0 0 0 0 1 0 0 0 0 0 0 0 0 0 0 0 0 0 14 10 0 0 0 0 0 0 0 0 0 1 3 0 0 0 0 0 0 0
0 0 0 0 0 1 0 0 0 0 0 0 0 0 0 0 0 0 0 0 0 0 0 0 0 0 0 0 0 0 0 0 0 3 20 0 76 0 0 0 0 0 0 3 0 0 0 0 0 0 0 0 0 0
2 1 1 0 0 0 0 0 0 0 0 0 0 0 0 0 0 0 0 0 0 0 0 0 0 0 0 0 0 0 0 0 0 0 42 34 1 0 0 0 0 0 0 0 0 0 0 0 0 0 0 0 0 0
5 6 4 4 2 1 1 1 0 0 0 1 0 0 0 0 0 0 0 0 0 0 0 1 0 0 0 0 0 0 0 0 0 0 0 0 1 0 5 0 0 0 0 0 0 0 0 0 0 0 0 0 0 0
12 10 15 21 7 14 8 4 2 3 6 6 2 0 0 1 1 0 0 0 0 0 2 3 0 0 0 0 0 0 0 0 0 0 1 0 0 0 0 0 0 0 0 0 11 0 1 0 0 0 0 0 0 0
8 18 10 23 27 24 27 13 10 7 2 0 0 0 0 0 0 0 6 0 0 0 0 5 0 0 0 0 0 0 0 0 0 0 12 0 0 1 21 0 0 0 0 0 0 0 0 0 0 0 0 0 0 0
19 36 14 21 35 30 27 23 20 14 0 0 0 0 0 0 0 0 0 0 0 0 0 8 6 0 0 0 0 0 0 0 0 1 14 0 0 0 23 5 0 0 0 0 0 0 0 0 0 0 0 0 0 0
41 43 19 15 28 30 28 25 11 15 5 0 0 0 0 0 0 0 0 0 0 0 0 7 8 1 0 17 0 0 5 0 0 7 0 1 0 1 6 0 0 0 0 0 0 0 0 0 0 0 0 0 0 0
62 35 27 22 9 10 10 14 14 0 0 0 0 0 0 0 0 0 0 0 0 0 1 0 6 9 0 7 3 1 9 9 0 4 0 0 18 0 0 0 0 0 0 0 0 0 0 0 0 0 0 1 1 0
32 15 2 21 45 39 20 11 4 0 0 0 0 0 0 0 0 0 0 0 0 0 0 13 0 2 6 12 20 0 41 5 0 0 0 0 0 0 0 0 0 0 0 0 0 0 0 0 0 0 3 2 0 0
8 0 1 3 4 16 25 19 11 2 0 26 31 17 0 0 0 0 7 0 11 4 4 14 0 4 6 23 14 0 10 0 0 0 0 2 0 0 0 0 0 0 0 0 0 0 0 0 4 4 4 0 0 0
1 0 0 0 1 2 3 0 0 3 3 7 0 0 0 0 6 0 0 0 0 0 1 28 24 2 6 3 1 4 0 0 3 0 3 0 9 0 0 0 0 0 0 1 0 0 0 2 6 1 0 0 0 1
0 0 0 0 0 0 0 0 0 0 0 0 0 0 0 0 2 0 0 0 0 2 9 9 10 5 8 0 3 1 0 2 0 16 0 24 1 0 0 0 0 2 1 0 0 0 0 0 0 0 0 0 1 1
0 0 0 0 0 0 0 0 0 0 0 2 0 0 0 0 1 6 0 0 1 5 5 0 11 10 7 4 3 0 2 0 2 1 6 4 6 1 0 2 2 0 0 1 0 0 0 0 1 1 0 0 0 0
0 0 0 0 0 0 0 0 0 0 0 0 0 0 18 4 0 0 2 7 14 7 19 20 11 0 2 0 0 0 0 2 0 23 35 5 4 3 1 1 1 1 0 2 1 0 0 0 1 1 0 1 0 0
0 0 0 0 0 0 0 0 0 0 0 0 14 19 26 3 3 19 26 18 21 15 10 0 2 0 1 0 0 0 0 0 10 7 4 3 1 0 0 1 0 1 2 1 1 0 0 0 0 3 3 1 0 0
0 0 0 0 0 0 0 0 0 0 0 2 35 29 32 36 25 24 20 17 28 23 35 4 0 1 5 0 0 14 5 6 8 8 7 6 1 1 0 0 0 2 2 2 1 0 0 0 1 2 2 1 2 1
0 0 0 0 0 0 0 0 0 1 6 32 10 29 15 20 7 0 23 21 15 3 0 0 0 0 0 0 24 5 3 3 12 3 1 2 1 0 0 1 0 2 1 2 2 1 0 1 0 1 1 0 1 1
0 0 0 0 0 0 0 0 2 9 12 30 12 2 25 37 9 13 14 19 20 4 0 1 0 0 22 20 4 0 10 12 8 11 0 0 0 0 1 1 0 0 0 0 1 2 1 1 1 0 0 0 0 1
0 0 0 0 0 0 0 0 0 5 7 4 25 33 27 28 21 28 9 5 1 0 0 0 9 40 47 35 29 47 40 47 30 43 49 17 0 0 0 1 2 2 1 0 0 0 5 3 1 1 0 0 1 0
0 0 0 0 0 0 0 0 1 2 8 5 5 2 4 11 11 7 1 0 0 0 0 0 8 47 12 44 35 41 37 27 33 26 27 41 47 28 23 13 0 0 0 1 2 2 0 5 2 0 8 0 1 4
0 0 0 0 0 0 0 0 4 1 4 4 4 2 6 5 0 0 0 0 0 0 0 0 2 2 12 9 11 2 4 2 19 9 3 10 22 39 44 55 34 4 2 3 0 2 4 0 0 3 2 0 0 3
0 0 0 0 0 0 0 0 0 0 0 2 0 0 0 0 0 0 0 0 0 0 0 0 0 0 0 0 0 0 0 0 0 0 11 36 45 57 60 45 68 68 6 0 1 1 2 0 0 1 0 0 0 5
0 0 0 0 0 0 0 0 0 0 0 0 0 0 0 0 0 0 0 0 13 1 0 0 0 1 0 1 5 15 47 23 18 18 39 48 48 52 53 46 49 67 64 1 0 0 0 0 0 0 1 0 0 1
0 0 0 0 0 0 0 0 0 0 0 0 0 0 0 0 0 0 0 0 3 4 6 6 9 7 4 10 37 34 19 6 12 6 0 7 32 42 41 46 52 66 57 41 0 0 0 0 0 1 1 2 0 0
0 0 0 0 0 0 0 0 0 0 0 0 0 0 0 0 0 0 0 3 25 9 27 11 11 15 20 17 27 25 13 8 22 22 27 26 25 23 27 40 60 52 29 50 0 0 0 0 0 1 1 1 0 0
0 0 0 0 0 0 0 0 0 0 0 0 0 0 0 0 0 0 3 31 19 25 27 19 16 13 10 12 5 0 0 5 23 16 18 29 35 15 11 10 1 6 4 0 0 0 0 0 0 0 2 1 1 0
0 0 0 0 0 0 0 0 0 0 0 0 0 0 0 0 0 0 10 23 18 7 12 20 3 2 2 0 0 0 2 6 8 28 28 51 0 0 0 2 0 0 0 0 0 0 0 0 0 0 0 1 1 0
0 0 0 0 0 0 0 0 0 0 0 0 0 0 0 0 10 16 4 0 0 0 3 11 36 0 0 0 0 0 0 0 0 0 11 23 11 10 2 0 7 6 10 4 1 0 0 0 0 0 0 0 0 0
0 0 0 0 0 0 0 0 10 0 0 0 1 0 0 0 0 0 3 2 20 62 1 1 56 0 1 5 7 6 31 16 16 15 2 3 2 1 0 4 21 12 8 3 5 3 1 0 0 0 0 0 0 0
0 0 0 0 0 18 14 5 2 0 0 2 0 0 0 3 0 0 0 8 14 10 0 3 19 33 9 13 25 16 11 0 0 0 1 0 9 19 5 6 25 7 4 2 2 4 2 2 2 2 1 0 0 0
7 2 0 0 8 3 0 5 6 3 5 5 8 7 12 7 4 4 1 28 38 2 9 22 10 18 1 1 1 2 0 4 2 1 0 2 3 4 16 8 10 5 3 6 9 8 7 6 7 10 5 4 2 1
9 13 7 7 6 6 5 5 1 1 4 3 4 5 6 8 1 12 2 4 4 3 3 1 1 1 0 0 0 2 0 2 0 0 0 1 1 0 0 21 3 7 16 20 12 1 7 6 9 11 7 6 10 10